| time (UTC) | temp F | wind direction | speed knots | gust knots | rain 1hr in | rain 24hr in | rain mn in | humidity % | barometer mb |
| 20260507120822 | 39 | 197 | 2.6 | 2.6 | 0.00 | 0.00 | 0.00 | 71 | 979.9 |
| 20260507115800 | 39 | 208 | 1.7 | 2.6 | 0.00 | 0.00 | 0.00 | 71 | 979.9 |
| 20260507115300 | 39 | 177 | 1.7 | 2.6 | 0.00 | 0.00 | 0.00 | 72 | 979.8 |
| 20260507114800 | 39 | 184 | 1.7 | 2.6 | 0.00 | 0.00 | 0.00 | 71 | 979.7 |
| 20260507113739 | 38 | 151 | 2.6 | 3.5 | 0.00 | 0.00 | 0.00 | 72 | 979.7 |
| 20260507113239 | 38 | 142 | 1.7 | 2.6 | 0.00 | 0.00 | 0.00 | 72 | 979.6 |
| 20260507112739 | 38 | 150 | 0.9 | 1.7 | 0.00 | 0.00 | 0.00 | 73 | 979.6 |
| 20260507112238 | 38 | 191 | 1.7 | 2.6 | 0.00 | 0.00 | 0.00 | 72 | 979.6 |
| 20260507111217 | 38 | 193 | 1.7 | 2.6 | 0.00 | 0.00 | 0.00 | 72 | 979.5 |
| 20260507110717 | 37 | 175 | 2.6 | 3.5 | 0.00 | 0.00 | 0.00 | 72 | 979.5 |
| 20260507110217 | 37 | 177 | 1.7 | 2.6 | 0.00 | 0.00 | 0.00 | 72 | 979.5 |
| 20260507105716 | 36 | 183 | 2.6 | 3.5 | 0.00 | 0.00 | 0.00 | 73 | 979.5 |
| 20260507105216 | 35 | 186 | 2.6 | 3.5 | 0.00 | 0.00 | 0.00 | 74 | 979.4 |
| 20260507104716 | 35 | 203 | 1.7 | 1.7 | 0.00 | 0.00 | 0.00 | 75 | 979.5 |
| 20260507103655 | 34 | 190 | 1.7 | 2.6 | 0.00 | 0.00 | 0.00 | 77 | 979.5 |
| 20260507103155 | 34 | 215 | 0.9 | 1.7 | 0.00 | 0.00 | 0.00 | 77 | 979.5 |
| 20260507102133 | 35 | 214 | 0.9 | 1.7 | 0.00 | 0.00 | 0.00 | 76 | 979.5 |
| 20260507101633 | 35 | 171 | 0.9 | 1.7 | 0.00 | 0.00 | 0.00 | 75 | 979.5 |
| 20260507100612 | 36 | 249 | 1.7 | 2.6 | 0.00 | 0.00 | 0.00 | 74 | 979.4 |
| 20260507100112 | 36 | 141 | 2.6 | 3.5 | 0.00 | 0.00 | 0.00 | 74 | 979.4 |
| 20260507095051 | 36 | 225 | 0.9 | 1.7 | 0.00 | 0.00 | 0.00 | 74 | 979.4 |
| 20260507094550 | 36 | 190 | 0.9 | 2.6 | 0.00 | 0.00 | 0.00 | 74 | 979.4 |
| 20260507094050 | 36 | 0 | 0.0 | 0.0 | 0.00 | 0.00 | 0.00 | 74 | 979.4 |
| 20260507093550 | 36 | 140 | 0.9 | 0.9 | 0.00 | 0.00 | 0.00 | 75 | 979.4 |
| 20260507093049 | 36 | 188 | 0.9 | 1.7 | 0.00 | 0.00 | 0.00 | 75 | 979.5 |
| 20260507092549 | 36 | 183 | 0.9 | 2.6 | 0.00 | 0.00 | 0.00 | 75 | 979.5 |
| 20260507092048 | 36 | 216 | 1.7 | 2.6 | 0.00 | 0.00 | 0.00 | 75 | 979.5 |
| 20260507091548 | 36 | 216 | 1.7 | 1.7 | 0.00 | 0.00 | 0.00 | 74 | 979.5 |
| 20260507091048 | 36 | 211 | 0.9 | 1.7 | 0.00 | 0.00 | 0.00 | 75 | 979.5 |
| 20260507090548 | 37 | 0 | 0.0 | 0.0 | 0.00 | 0.00 | 0.00 | 74 | 979.6 |
| 20260507085527 | 37 | 154 | 0.9 | 0.9 | 0.00 | 0.00 | 0.00 | 73 | 979.7 |
| 20260507085027 | 38 | 197 | 1.7 | 2.6 | 0.00 | 0.00 | 0.00 | 73 | 979.8 |
| 20260507084526 | 38 | 164 | 0.9 | 1.7 | 0.00 | 0.00 | 0.00 | 73 | 979.7 |
| 20260507084026 | 38 | 0 | 0.0 | 0.0 | 0.00 | 0.00 | 0.00 | 73 | 979.7 |
| 20260507083005 | 39 | 42 | 0.9 | 1.7 | 0.00 | 0.00 | 0.00 | 73 | 979.8 |
| 20260507081944 | 39 | 0 | 0.0 | 0.0 | 0.00 | 0.00 | 0.00 | 73 | 979.6 |
| 20260507081444 | 39 | 120 | 0.0 | 0.9 | 0.00 | 0.00 | 0.00 | 73 | 979.6 |
| 20260507080943 | 39 | 154 | 0.9 | 1.7 | 0.00 | 0.00 | 0.00 | 74 | 979.6 |
| 20260507080443 | 39 | 115 | 0.9 | 2.6 | 0.00 | 0.00 | 0.00 | 75 | 979.8 |
| 20260507075943 | 39 | 231 | 0.9 | 0.9 | 0.00 | 0.00 | 0.00 | 75 | 979.7 |
| 20260507074400 | 40 | 0 | 0.0 | 0.0 | 0.00 | 0.00 | 0.00 | 73 | 979.7 |
| 20260507073900 | 41 | 0 | 0.0 | 0.0 | 0.00 | 0.00 | 0.00 | 73 | 979.7 |
| 20260507073400 | 41 | 0 | 0.0 | 0.0 | 0.00 | 0.00 | 0.00 | 73 | 979.7 |
| 20260507072859 | 41 | 0 | 0.0 | 0.0 | 0.00 | 0.00 | 0.00 | 72 | 979.7 |
| 20260507072359 | 41 | 286 | 0.9 | 1.7 | 0.00 | 0.00 | 0.00 | 72 | 979.7 |
| 20260507071859 | 41 | 0 | 0.0 | 0.0 | 0.00 | 0.00 | 0.00 | 71 | 979.7 |
| 20260507071358 | 41 | 333 | 1.7 | 3.5 | 0.00 | 0.00 | 0.00 | 71 | 979.8 |
| 20260507070858 | 41 | 325 | 1.7 | 2.6 | 0.00 | 0.00 | 0.00 | 71 | 979.7 |
| 20260507070358 | 41 | 330 | 1.7 | 1.7 | 0.00 | 0.00 | 0.00 | 71 | 979.7 |
| 20260507065858 | 41 | 0 | 0.0 | 0.0 | 0.00 | 0.00 | 0.00 | 71 | 979.8 |
| 20260507065358 | 41 | 338 | 1.7 | 2.6 | 0.00 | 0.00 | 0.00 | 70 | 979.8 |
| 20260507064856 | 41 | 335 | 1.7 | 2.6 | 0.00 | 0.00 | 0.00 | 70 | 979.8 |
| 20260507064356 | 42 | 342 | 1.7 | 3.5 | 0.00 | 0.00 | 0.00 | 70 | 979.7 |
| 20260507063855 | 42 | 352 | 2.6 | 4.3 | 0.00 | 0.00 | 0.00 | 70 | 979.7 |
| 20260507063355 | 42 | 0 | 0.0 | 0.0 | 0.00 | 0.00 | 0.00 | 70 | 979.7 |
| 20260507062855 | 42 | 342 | 2.6 | 4.3 | 0.00 | 0.00 | 0.00 | 69 | 979.7 |
| 20260507061834 | 42 | 343 | 1.7 | 2.6 | 0.00 | 0.00 | 0.00 | 70 | 979.5 |
| 20260507061334 | 43 | 288 | 1.7 | 1.7 | 0.00 | 0.00 | 0.00 | 70 | 979.5 |
| 20260507060833 | 43 | 270 | 1.7 | 1.7 | 0.00 | 0.00 | 0.00 | 70 | 979.5 |
| 20260507060333 | 43 | 256 | 1.7 | 2.6 | 0.00 | 0.00 | 0.00 | 69 | 979.4 |
| 20260507055311 | 43 | 248 | 2.6 | 4.3 | 0.00 | 0.00 | 0.00 | 69 | 979.4 |
| 20260507054811 | 42 | 262 | 4.3 | 6.1 | 0.00 | 0.00 | 0.00 | 70 | 979.5 |
| 20260507054311 | 42 | 260 | 1.7 | 3.5 | 0.00 | 0.00 | 0.00 | 70 | 979.6 |
| 20260507053811 | 42 | 234 | 0.9 | 2.6 | 0.00 | 0.00 | 0.00 | 70 | 979.6 |
| 20260507053311 | 43 | 245 | 2.6 | 5.2 | 0.00 | 0.00 | 0.00 | 69 | 979.6 |
| 20260507052811 | 42 | 241 | 0.9 | 1.7 | 0.00 | 0.00 | 0.00 | 69 | 979.7 |
| 20260507052310 | 42 | 236 | 2.6 | 4.3 | 0.00 | 0.00 | 0.00 | 69 | 979.8 |
| 20260507051810 | 42 | 191 | 1.7 | 3.5 | 0.00 | 0.00 | 0.00 | 69 | 979.8 |
| 20260507050750 | 42 | 254 | 1.7 | 2.6 | 0.00 | 0.00 | 0.00 | 67 | 979.9 |
| 20260507050248 | 42 | 209 | 0.9 | 2.6 | 0.00 | 0.00 | 0.00 | 67 | 979.9 |
| 20260507045748 | 42 | 231 | 2.6 | 5.2 | 0.00 | 0.00 | 0.00 | 66 | 979.9 |
| 20260507045249 | 43 | 194 | 0.9 | 0.9 | 0.00 | 0.00 | 0.00 | 66 | 979.9 |
| 20260507044748 | 43 | 240 | 1.7 | 4.3 | 0.00 | 0.00 | 0.00 | 65 | 980.0 |
| 20260507044248 | 43 | 213 | 0.9 | 1.7 | 0.00 | 0.00 | 0.00 | 64 | 980.0 |
| 20260507043747 | 43 | 246 | 2.6 | 4.3 | 0.00 | 0.00 | 0.00 | 63 | 980.0 |
| 20260507043247 | 43 | 215 | 1.7 | 1.7 | 0.00 | 0.00 | 0.00 | 62 | 980.1 |
| 20260507042225 | 42 | 237 | 1.7 | 1.7 | 0.00 | 0.00 | 0.00 | 63 | 980.1 |
| 20260507041724 | 42 | 228 | 1.7 | 2.6 | 0.00 | 0.00 | 0.00 | 64 | 980.2 |
| 20260507041224 | 42 | 201 | 0.9 | 1.7 | 0.00 | 0.00 | 0.00 | 66 | 980.1 |
| 20260507040202 | 42 | 208 | 0.9 | 1.7 | 0.00 | 0.00 | 0.00 | 65 | 980.1 |
| 20260507035702 | 42 | 233 | 0.9 | 2.6 | 0.00 | 0.00 | 0.00 | 65 | 980.1 |
| 20260507035201 | 42 | 0 | 0.0 | 0.0 | 0.00 | 0.00 | 0.00 | 67 | 980.2 |
| 20260507034701 | 42 | 221 | 0.9 | 1.7 | 0.00 | 0.00 | 0.00 | 68 | 980.2 |
| 20260507033639 | 41 | 0 | 0.0 | 0.0 | 0.00 | 0.00 | 0.00 | 66 | 980.1 |
| 20260507033139 | 41 | 220 | 0.9 | 1.7 | 0.00 | 0.00 | 0.00 | 65 | 980.2 |
| 20260507032116 | 41 | 0 | 0.0 | 0.0 | 0.00 | 0.00 | 0.00 | 68 | 980.2 |
| 20260507031615 | 41 | 0 | 0.0 | 0.0 | 0.00 | 0.00 | 0.00 | 67 | 980.3 |
| 20260507031115 | 41 | 0 | 0.0 | 0.0 | 0.00 | 0.00 | 0.00 | 68 | 980.3 |
| 20260507030054 | 41 | 0 | 0.0 | 0.0 | 0.00 | 0.00 | 0.00 | 67 | 980.4 |
| 20260507025554 | 41 | 0 | 0.0 | 0.0 | 0.00 | 0.00 | 0.00 | 67 | 980.3 |
| 20260507025053 | 41 | 0 | 0.0 | 0.0 | 0.00 | 0.00 | 0.00 | 67 | 980.3 |
| 20260507024030 | 41 | 0 | 0.0 | 0.0 | 0.00 | 0.00 | 0.00 | 65 | 980.2 |
| 20260507023530 | 41 | 193 | 0.9 | 1.7 | 0.00 | 0.00 | 0.00 | 64 | 980.2 |
| 20260507022507 | 41 | 0 | 0.0 | 0.0 | 0.00 | 0.00 | 0.00 | 65 | 980.3 |
| 20260507021445 | 41 | 0 | 0.0 | 0.0 | 0.00 | 0.00 | 0.00 | 66 | 980.3 |
| 20260507020945 | 41 | 0 | 0.0 | 0.0 | 0.00 | 0.00 | 0.00 | 63 | 980.2 |
| 20260507015402 | 41 | 0 | 0.0 | 0.0 | 0.00 | 0.00 | 0.00 | 64 | 980.3 |
| 20260507014902 | 42 | 0 | 0.0 | 0.0 | 0.00 | 0.00 | 0.00 | 63 | 980.2 |
| 20260507013840 | 42 | 0 | 0.0 | 0.0 | 0.00 | 0.00 | 0.00 | 59 | 980.2 |
| 20260507012819 | 42 | 215 | 0.0 | 0.9 | 0.00 | 0.00 | 0.00 | 60 | 980.2 |
| 20260507012319 | 43 | 0 | 0.0 | 0.0 | 0.00 | 0.00 | 0.00 | 59 | 980.2 |
| 20260507011818 | 43 | 0 | 0.0 | 0.0 | 0.00 | 0.00 | 0.00 | 60 | 980.2 |
| 20260507011317 | 43 | 0 | 0.0 | 0.0 | 0.00 | 0.00 | 0.00 | 59 | 980.3 |
| 20260507010256 | 44 | 255 | 0.9 | 1.7 | 0.00 | 0.00 | 0.00 | 55 | 980.4 |
| 20260507005756 | 44 | 229 | 0.9 | 1.7 | 0.00 | 0.00 | 0.00 | 53 | 980.3 |
| 20260507005256 | 44 | 219 | 1.7 | 1.7 | 0.00 | 0.00 | 0.00 | 52 | 980.3 |
| 20260507004755 | 44 | 238 | 0.9 | 1.7 | 0.00 | 0.00 | 0.00 | 51 | 980.2 |
| 20260507004255 | 45 | 246 | 1.7 | 1.7 | 0.00 | 0.00 | 0.00 | 50 | 980.3 |
| 20260507003755 | 45 | 269 | 0.9 | 1.7 | 0.00 | 0.00 | 0.00 | 50 | 980.2 |
| 20260507003254 | 45 | 262 | 1.7 | 1.7 | 0.00 | 0.00 | 0.00 | 49 | 980.1 |
| 20260507002754 | 46 | 258 | 0.9 | 1.7 | 0.00 | 0.00 | 0.00 | 48 | 980.1 |
| 20260507002254 | 46 | 275 | 0.9 | 0.9 | 0.00 | 0.00 | 0.00 | 47 | 980.0 |
| 20260507001754 | 46 | 310 | 1.7 | 2.6 | 0.00 | 0.00 | 0.00 | 47 | 980.0 |
| 20260507001254 | 46 | 302 | 1.7 | 2.6 | 0.00 | 0.00 | 0.00 | 45 | 979.9 |
| 20260507000754 | 47 | 325 | 1.7 | 2.6 | 0.00 | 0.00 | 0.00 | 44 | 979.8 |
| 20260507000253 | 47 | 332 | 3.5 | 4.3 | 0.00 | 0.00 | 0.00 | 43 | 979.7 |
| 20260506235231 | 48 | 338 | 2.6 | 4.3 | 0.00 | 0.00 | 0.00 | 43 | 979.7 |
| 20260506233649 | 47 | 326 | 3.5 | 5.2 | 0.00 | 0.00 | 0.00 | 42 | 979.8 |
| 20260506233148 | 47 | 334 | 2.6 | 4.3 | 0.00 | 0.00 | 0.00 | 42 | 979.8 |
| 20260506232647 | 48 | 333 | 5.2 | 6.1 | 0.00 | 0.00 | 0.00 | 41 | 979.7 |
| 20260506231626 | 48 | 10 | 3.5 | 7.8 | 0.00 | 0.00 | 0.00 | 41 | 979.8 |
| 20260506225522 | 49 | 332 | 6.1 | 7.8 | 0.00 | 0.00 | 0.00 | 40 | 979.8 |
| 20260506225021 | 49 | 352 | 6.1 | 7.0 | 0.00 | 0.00 | 0.00 | 38 | 979.8 |
| 20260506224521 | 49 | 317 | 3.5 | 7.0 | 0.00 | 0.00 | 0.00 | 40 | 979.9 |
| 20260506224021 | 48 | 340 | 4.3 | 6.1 | 0.00 | 0.00 | 0.00 | 40 | 979.9 |
| 20260506223520 | 48 | 317 | 4.3 | 7.0 | 0.00 | 0.00 | 0.00 | 40 | 979.9 |
| 20260506222459 | 48 | 352 | 4.3 | 6.1 | 0.00 | 0.00 | 0.00 | 40 | 979.9 |
| 20260506221959 | 48 | 332 | 2.6 | 5.2 | 0.00 | 0.00 | 0.00 | 41 | 979.9 |
| 20260506221458 | 48 | 340 | 7.0 | 8.7 | 0.00 | 0.00 | 0.00 | 40 | 979.9 |
| 20260506220958 | 48 | 336 | 6.1 | 11.3 | 0.00 | 0.00 | 0.00 | 40 | 979.8 |
| 20260506220458 | 49 | 337 | 6.1 | 7.0 | 0.00 | 0.00 | 0.00 | 38 | 979.8 |
| 20260506215958 | 49 | 309 | 6.1 | 7.8 | 0.00 | 0.00 | 0.00 | 38 | 979.8 |
| 20260506215457 | 49 | 352 | 3.5 | 7.0 | 0.00 | 0.00 | 0.00 | 39 | 979.7 |
| 20260506214957 | 48 | 345 | 6.1 | 9.6 | 0.00 | 0.00 | 0.00 | 38 | 979.6 |
| 20260506214457 | 48 | 3 | 3.5 | 7.0 | 0.00 | 0.00 | 0.00 | 39 | 979.5 |
| 20260506213957 | 49 | 331 | 3.5 | 6.1 | 0.00 | 0.00 | 0.00 | 38 | 979.5 |
| 20260506212935 | 48 | 331 | 4.3 | 7.8 | 0.00 | 0.00 | 0.00 | 38 | 979.5 |
| 20260506212435 | 49 | 339 | 6.1 | 9.6 | 0.00 | 0.00 | 0.00 | 37 | 979.5 |
| 20260506211414 | 48 | 9 | 4.3 | 7.8 | 0.00 | 0.00 | 0.00 | 40 | 979.5 |
| 20260506210913 | 48 | 350 | 5.2 | 9.6 | 0.00 | 0.00 | 0.00 | 40 | 979.5 |
| 20260506210412 | 48 | 11 | 4.3 | 7.8 | 0.00 | 0.00 | 0.00 | 43 | 979.3 |
| 20260506205912 | 48 | 359 | 5.2 | 7.0 | 0.00 | 0.00 | 0.00 | 43 | 979.3 |
| 20260506204850 | 47 | 340 | 5.2 | 7.8 | 0.00 | 0.00 | 0.00 | 43 | 979.2 |
| 20260506204350 | 47 | 349 | 7.8 | 10.4 | 0.00 | 0.00 | 0.00 | 43 | 979.2 |
| 20260506203849 | 47 | 341 | 7.0 | 8.7 | 0.00 | 0.00 | 0.00 | 45 | 979.2 |
| 20260506203349 | 47 | 338 | 7.0 | 10.4 | 0.00 | 0.00 | 0.00 | 46 | 979.2 |
| 20260506202849 | 47 | 341 | 6.1 | 9.6 | 0.00 | 0.00 | 0.00 | 47 | 979.3 |
| 20260506202348 | 47 | 323 | 6.1 | 7.8 | 0.00 | 0.00 | 0.00 | 47 | 979.3 |
| 20260506201326 | 47 | 334 | 6.1 | 7.8 | 0.00 | 0.00 | 0.00 | 48 | 979.3 |
| 20260506200826 | 47 | 350 | 4.3 | 7.8 | 0.00 | 0.00 | 0.00 | 49 | 979.3 |
| 20260506195805 | 47 | 347 | 7.0 | 8.7 | 0.00 | 0.00 | 0.00 | 48 | 979.3 |
| 20260506195306 | 47 | 348 | 4.3 | 7.8 | 0.00 | 0.00 | 0.00 | 49 | 979.3 |
| 20260506194804 | 47 | 351 | 4.3 | 7.0 | 0.00 | 0.00 | 0.00 | 49 | 979.2 |
| 20260506194304 | 47 | 336 | 3.5 | 5.2 | 0.00 | 0.00 | 0.00 | 49 | 979.2 |
| 20260506193803 | 47 | 2 | 4.3 | 7.8 | 0.00 | 0.00 | 0.00 | 50 | 979.2 |
| 20260506193303 | 47 | 317 | 7.8 | 12.2 | 0.00 | 0.00 | 0.00 | 48 | 979.1 |
| 20260506192803 | 47 | 341 | 8.7 | 11.3 | 0.00 | 0.00 | 0.00 | 47 | 979.2 |
| 20260506192305 | 47 | 353 | 5.2 | 7.0 | 0.00 | 0.00 | 0.00 | 49 | 979.1 |
| 20260506191803 | 47 | 343 | 7.0 | 9.6 | 0.00 | 0.00 | 0.00 | 49 | 979.1 |
| 20260506191302 | 47 | 348 | 6.1 | 8.7 | 0.00 | 0.00 | 0.00 | 50 | 979.1 |
| 20260506190801 | 47 | 355 | 5.2 | 7.8 | 0.00 | 0.00 | 0.00 | 50 | 979.3 |
| 20260506190300 | 47 | 338 | 7.8 | 9.6 | 0.00 | 0.00 | 0.00 | 49 | 979.3 |
| 20260506185800 | 48 | 333 | 7.0 | 10.4 | 0.00 | 0.00 | 0.00 | 50 | 979.2 |
| 20260506185300 | 47 | 345 | 6.1 | 10.4 | 0.00 | 0.00 | 0.00 | 50 | 979.3 |
| 20260506184800 | 48 | 347 | 7.8 | 10.4 | 0.00 | 0.00 | 0.00 | 50 | 979.3 |
| 20260506184259 | 47 | 340 | 7.0 | 10.4 | 0.00 | 0.00 | 0.00 | 50 | 979.2 |
| 20260506183759 | 48 | 343 | 7.8 | 13.0 | 0.00 | 0.00 | 0.00 | 51 | 979.0 |
| 20260506183259 | 48 | 334 | 7.0 | 9.6 | 0.00 | 0.00 | 0.00 | 51 | 979.0 |
| 20260506182759 | 48 | 322 | 6.1 | 7.8 | 0.00 | 0.00 | 0.00 | 51 | 978.9 |
| 20260506182258 | 48 | 323 | 7.8 | 10.4 | 0.00 | 0.00 | 0.00 | 50 | 978.8 |
| 20260506181757 | 49 | 333 | 6.1 | 11.3 | 0.00 | 0.00 | 0.00 | 50 | 978.6 |
| 20260506181257 | 49 | 333 | 7.0 | 10.4 | 0.00 | 0.00 | 0.00 | 49 | 978.6 |
| 20260506180757 | 49 | 8 | 3.5 | 7.8 | 0.00 | 0.00 | 0.00 | 49 | 978.5 |
| 20260506180256 | 49 | 336 | 7.0 | 8.7 | 0.00 | 0.00 | 0.00 | 49 | 978.4 |
| 20260506175755 | 49 | 338 | 5.2 | 10.4 | 0.00 | 0.00 | 0.00 | 50 | 978.4 |
| 20260506175255 | 49 | 340 | 4.3 | 7.0 | 0.00 | 0.00 | 0.00 | 49 | 978.3 |
| 20260506174755 | 49 | 6 | 5.2 | 10.4 | 0.00 | 0.00 | 0.00 | 50 | 978.4 |
| 20260506174255 | 50 | 0 | 7.0 | 10.4 | 0.00 | 0.00 | 0.00 | 51 | 978.5 |
| 20260506172712 | 50 | 16 | 6.1 | 9.6 | 0.00 | 0.00 | 0.00 | 49 | 978.4 |
| 20260506172212 | 50 | 343 | 5.2 | 7.8 | 0.00 | 0.00 | 0.00 | 52 | 978.3 |
| 20260506171151 | 50 | 353 | 5.2 | 7.8 | 0.00 | 0.00 | 0.00 | 51 | 978.4 |
| 20260506170650 | 50 | 344 | 7.8 | 10.4 | 0.00 | 0.00 | 0.00 | 52 | 978.2 |
| 20260506170150 | 50 | 337 | 5.2 | 9.6 | 0.00 | 0.00 | 0.00 | 53 | 978.3 |
| 20260506165129 | 50 | 346 | 7.0 | 11.3 | 0.00 | 0.00 | 0.00 | 52 | 978.5 |
| 20260506164628 | 50 | 351 | 4.3 | 7.0 | 0.00 | 0.00 | 0.00 | 55 | 978.4 |
| 20260506164128 | 50 | 339 | 7.0 | 9.6 | 0.00 | 0.00 | 0.00 | 56 | 978.6 |
| 20260506163627 | 50 | 346 | 7.0 | 10.4 | 0.00 | 0.00 | 0.00 | 56 | 978.6 |
| 20260506163127 | 49 | 18 | 6.1 | 10.4 | 0.00 | 0.00 | 0.00 | 57 | 978.6 |
| 20260506162627 | 49 | 339 | 9.6 | 13.0 | 0.00 | 0.00 | 0.00 | 57 | 978.3 |
| 20260506162126 | 49 | 342 | 7.8 | 10.4 | 0.00 | 0.00 | 0.00 | 57 | 978.3 |
| 20260506161626 | 49 | 338 | 7.0 | 11.3 | 0.00 | 0.00 | 0.00 | 60 | 978.3 |
| 20260506160605 | 49 | 353 | 5.2 | 7.8 | 0.00 | 0.00 | 0.00 | 61 | 978.4 |
| 20260506160104 | 49 | 12 | 6.1 | 9.6 | 0.00 | 0.00 | 0.00 | 62 | 978.2 |
| 20260506155043 | 49 | 335 | 7.0 | 9.6 | 0.00 | 0.00 | 0.00 | 64 | 978.2 |
| 20260506154543 | 49 | 333 | 5.2 | 9.6 | 0.00 | 0.00 | 0.00 | 65 | 978.2 |
| 20260506154042 | 49 | 347 | 4.3 | 8.7 | 0.00 | 0.00 | 0.00 | 66 | 978.3 |
| 20260506153542 | 49 | 9 | 4.3 | 6.1 | 0.00 | 0.00 | 0.00 | 67 | 978.2 |
| 20260506153041 | 49 | 347 | 7.8 | 11.3 | 0.00 | 0.00 | 0.00 | 66 | 978.1 |
| 20260506152540 | 49 | 11 | 3.5 | 7.8 | 0.00 | 0.00 | 0.00 | 68 | 978.1 |
| 20260506152040 | 48 | 0 | 6.1 | 8.7 | 0.00 | 0.00 | 0.00 | 71 | 978.1 |
| 20260506151540 | 48 | 326 | 7.8 | 10.4 | 0.00 | 0.00 | 0.00 | 71 | 978.2 |
| 20260506151040 | 48 | 300 | 7.0 | 9.6 | 0.00 | 0.00 | 0.00 | 72 | 978.0 |
| 20260506150539 | 48 | 332 | 5.2 | 7.8 | 0.00 | 0.00 | 0.00 | 73 | 978.0 |
| 20260506145518 | 48 | 341 | 5.2 | 8.7 | 0.00 | 0.00 | 0.00 | 73 | 977.7 |
| 20260506145018 | 48 | 345 | 5.2 | 7.0 | 0.00 | 0.00 | 0.00 | 72 | 977.6 |
| 20260506143956 | 48 | 340 | 7.8 | 10.4 | 0.00 | 0.00 | 0.00 | 73 | 977.6 |
| 20260506143456 | 48 | 331 | 6.1 | 7.8 | 0.00 | 0.00 | 0.00 | 74 | 977.4 |
| 20260506142435 | 47 | 345 | 5.2 | 7.0 | 0.00 | 0.00 | 0.00 | 77 | 977.3 |
| 20260506141934 | 46 | 310 | 3.5 | 5.2 | 0.00 | 0.00 | 0.00 | 79 | 977.3 |
| 20260506141434 | 45 | 315 | 4.3 | 6.1 | 0.00 | 0.00 | 0.00 | 81 | 977.2 |
| 20260506140934 | 45 | 337 | 4.3 | 5.2 | 0.00 | 0.00 | 0.00 | 82 | 977.1 |
| 20260506140434 | 45 | 331 | 3.5 | 6.1 | 0.00 | 0.00 | 0.00 | 82 | 976.9 |
| 20260506135933 | 44 | 325 | 3.5 | 7.0 | 0.00 | 0.00 | 0.00 | 83 | 977.0 |
| 20260506134912 | 44 | 349 | 4.3 | 7.8 | 0.00 | 0.00 | 0.00 | 84 | 977.0 |
| 20260506134412 | 43 | 354 | 2.6 | 4.3 | 0.00 | 0.00 | 0.00 | 84 | 977.1 |
| 20260506133351 | 43 | 302 | 1.7 | 2.6 | 0.00 | 0.00 | 0.00 | 85 | 977.1 |
| 20260506132850 | 43 | 294 | 3.5 | 5.2 | 0.00 | 0.00 | 0.00 | 85 | 977.1 |
| 20260506132350 | 43 | 333 | 2.6 | 4.3 | 0.00 | 0.00 | 0.00 | 85 | 977.1 |
| 20260506131850 | 43 | 318 | 5.2 | 7.8 | 0.00 | 0.00 | 0.00 | 85 | 977.1 |
| 20260506131350 | 43 | 308 | 3.5 | 5.2 | 0.00 | 0.00 | 0.00 | 85 | 977.1 |
| 20260506130849 | 43 | 296 | 1.7 | 2.6 | 0.00 | 0.00 | 0.00 | 86 | 977.0 |
| 20260506130348 | 42 | 323 | 3.5 | 7.0 | 0.00 | 0.00 | 0.00 | 85 | 976.8 |
| 20260506125848 | 42 | 305 | 4.3 | 6.1 | 0.00 | 0.00 | 0.00 | 85 | 976.8 |
| 20260506125348 | 42 | 311 | 4.3 | 7.0 | 0.00 | 0.00 | 0.00 | 85 | 976.7 |
| 20260506124326 | 42 | 304 | 2.6 | 4.3 | 0.00 | 0.00 | 0.00 | 86 | 976.6 |
| 20260506123826 | 42 | 291 | 2.6 | 2.6 | 0.00 | 0.00 | 0.00 | 86 | 976.5 |
| 20260506123326 | 43 | 317 | 4.3 | 7.0 | 0.00 | 0.00 | 0.00 | 86 | 976.6 |
| 20260506122826 | 43 | 309 | 4.3 | 5.2 | 0.00 | 0.00 | 0.00 | 86 | 976.6 |
| 20260506122326 | 43 | 305 | 3.5 | 4.3 | 0.00 | 0.00 | 0.00 | 86 | 976.6 |
| 20260506121825 | 44 | 331 | 4.3 | 6.1 | 0.00 | 0.00 | 0.00 | 86 | 976.6 |